Time,TemperatureF,DewpointF,PressureIn,WindDirection,WindDirectionDegrees,WindSpeedMPH,WindSpeedGustMPH,Humidity,HourlyPrecipIn,Conditions,Clouds,dailyrainin,SoftwareType,DateUTC
2013-02-03 21:48:00,27.0,-5.9,28.94,North,3,7.6,7.6,23,0.00,,,0.00,VWS V13.01,2013-02-04 03:48:00,
2013-02-03 21:49:00,27.0,-5.9,28.94,North,4,7.6,8.1,23,0.04,,,0.00,VWS V13.01,2013-02-04 03:49:00,
2013-02-03 21:54:00,27.0,-5.9,28.94,North,3,8.1,8.1,23,0.04,,,0.00,VWS V13.01,2013-02-04 03:54:00,
2013-02-03 21:59:00,26.8,-6.0,28.91,North,4,5.8,9.6,23,0.04,,,0.00,VWS V13.01,2013-02-04 03:59:00,
2013-02-03 22:04:00,26.8,-6.0,28.91,North,3,5.8,7.6,23,0.04,,,0.00,VWS V13.01,2013-02-04 04:04:00,
2013-02-03 22:09:00,26.6,-5.3,28.91,North,3,6.3,7.6,24,0.04,,,0.00,VWS V13.01,2013-02-04 04:09:00,
2013-02-03 22:14:00,26.8,-6.0,28.91,North,4,5.8,10.5,23,0.04,,,0.00,VWS V13.01,2013-02-04 04:14:00,
2013-02-03 22:19:00,26.8,-6.0,28.91,North,4,5.4,5.4,23,0.04,,,0.00,VWS V13.01,2013-02-04 04:19:00,
2013-02-03 22:24:00,26.8,-6.0,28.91,North,4,5.4,5.4,23,0.04,,,0.00,VWS V13.01,2013-02-04 04:24:00,
2013-02-03 22:29:00,26.8,-6.0,28.91,North,4,4.9,4.9,23,0.04,,,0.00,VWS V13.01,2013-02-04 04:29:00,
2013-02-03 22:34:00,26.8,-6.0,28.91,North,4,5.4,5.8,23,0.04,,,0.00,VWS V13.01,2013-02-04 04:34:00,
2013-02-03 22:40:00,26.8,-6.0,28.91,North,4,3.6,5.4,23,0.04,,,0.00,VWS V13.01,2013-02-04 04:40:00,
2013-02-03 22:45:00,26.6,-5.3,28.88,North,3,5.4,6.7,24,0.04,,,0.00,VWS V13.01,2013-02-04 04:45:00,
2013-02-03 22:50:00,26.4,-5.5,28.88,North,3,5.8,6.3,24,0.00,,,0.00,VWS V13.01,2013-02-04 04:50:00,
2013-02-03 22:55:00,26.2,-5.6,28.88,North,4,3.6,4.9,24,0.00,,,0.00,VWS V13.01,2013-02-04 04:55:00,
2013-02-03 23:00:00,26.2,-5.6,28.88,North,3,4.0,4.9,24,0.00,,,0.00,VWS V13.01,2013-02-04 05:00:00,
2013-02-03 23:01:00,26.2,-5.6,28.88,North,3,3.6,4.0,24,0.00,,,0.00,VWS V13.01,2013-02-04 05:01:00,
2013-02-03 23:06:00,26.1,-5.8,28.88,North,3,3.6,4.5,24,0.00,,,0.00,VWS V13.01,2013-02-04 05:06:00,
2013-02-03 23:11:00,26.1,-5.8,28.88,North,4,3.1,3.6,24,0.00,,,0.00,VWS V13.01,2013-02-04 05:11:00,
2013-02-03 23:16:00,26.1,-5.8,28.88,North,4,2.7,2.7,24,0.00,,,0.00,VWS V13.01,2013-02-04 05:16:00,
2013-02-03 23:21:00,26.1,-5.8,28.88,North,2,5.4,5.4,24,0.00,,,0.00,VWS V13.01,2013-02-04 05:21:00,
2013-02-03 23:26:00,26.2,-5.6,28.88,North,3,4.0,4.0,24,0.00,,,0.00,VWS V13.01,2013-02-04 05:26:00,
2013-02-03 23:31:00,26.2,-5.6,28.88,North,3,3.1,3.1,24,0.00,,,0.00,VWS V13.01,2013-02-04 05:31:00,
2013-02-03 23:37:00,26.4,-5.5,28.88,North,4,3.1,4.9,24,0.00,,,0.00,VWS V13.01,2013-02-04 05:37:00,
2013-02-03 23:42:00,26.6,-5.3,28.88,North,4,3.6,5.4,24,0.00,,,0.00,VWS V13.01,2013-02-04 05:42:00,
2013-02-03 23:47:00,26.8,-6.0,28.85,North,4,4.9,6.3,23,0.00,,,0.00,VWS V13.01,2013-02-04 05:47:00,
2013-02-03 23:52:00,27.0,-5.9,28.85,North,3,3.6,5.4,23,0.00,,,0.00,VWS V13.01,2013-02-04 05:52:00,
2013-02-03 23:57:00,27.3,-5.6,28.85,North,4,4.9,6.3,23,0.00,,,0.00,VWS V13.01,2013-02-04 05:57:00,